{"data":{"norad_id":65518,"epoch":"2026-09-20T21:21:57.260448Z","epoch_age_seconds":78218,"freshness":"FRESH","line1":"1 65518U 25198AC  26263.89024607  .00018340  00000+0  55290-3 0  9994","line2":"2 65518  53.1601  80.2254 0001285 118.6214 241.4918 15.34382930 58564","mean_motion":15.3438293,"eccentricity":0.0001285,"inclination_deg":53.1601,"raan_deg":80.2254,"arg_perigee_deg":118.6214,"mean_anomaly_deg":241.4918,"bstar":0.0005529,"rev_number":5856,"period_min":93.848802137026,"perigee_km":461.87492182435,"apogee_km":463.63303080526,"semimajor_km":6840.8909763148,"source":"CELESTRAK","updated_at":"2026-09-21T09:00:35.646841Z"}}